Time,B instrument,Bx,By,Bz,sigma B,Ion instrument,Status,Tp_par,Tp_perp,carrot,r_sun,clat,clong,earth_he_angle,n_p,vp_x,vp_y,vp_z,vth_p_par,vth_p_perp
1980-11-30 00:00:55,-1,nan,nan,nan,nan,1,3,nan,nan,1701,0.32926154,-3.8574743,11.356964,155.59525,nan,323.919,28.8028,23.0289,nan,nan
1980-11-30 00:44:07,-1,nan,nan,nan,nan,1,3,nan,nan,1701,0.32903659,-3.837121,11.122284,155.7551,nan,325.682,38.0864,15.2716,nan,nan
1980-11-30 01:27:19,-1,nan,nan,nan,nan,1,3,nan,nan,1701,0.32881767,-3.8171711,10.884216,155.91154,nan,359.434,56.9831,37.9062,nan,nan
1980-11-30 02:10:31,-1,nan,nan,nan,nan,1,3,nan,nan,1701,0.32859963,-3.797163,10.646332,156.06819,nan,400.754,-9.91951,17.7088,nan,nan
1980-11-30 02:53:43,-1,nan,nan,nan,nan,1,3,nan,nan,1701,0.32838279,-3.7770844,10.408722,156.22511,nan,296.441,19.6349,28.564,nan,nan
1980-11-30 05:44:55,-1,nan,nan,nan,nan,1,3,nan,nan,1701,0.32753104,-3.6965647,9.468811,156.85161,nan,404.424,-22.6518,21.8217,nan,nan
1980-11-30 05:45:15,-1,nan,nan,nan,nan,1,3,nan,nan,1701,0.32752615,-3.6960917,9.4685669,156.85529,nan,404.424,-22.6516,21.8217,nan,nan
1980-11-30 05:45:35,-1,nan,nan,nan,nan,1,3,nan,nan,1701,0.32752615,-3.6960917,9.4685669,156.85529,nan,403.138,-22.1634,20.0886,nan,nan
1980-11-30 05:46:17,-1,nan,nan,nan,nan,1,3,nan,nan,1701,0.3275212,-3.6956186,9.4644165,156.85895,nan,404.254,-22.7566,21.1322,nan,nan
1980-11-30 05:46:57,-1,nan,nan,nan,nan,1,3,nan,nan,1701,0.3275212,-3.6956177,9.456604,156.85895,nan,401.552,-20.3156,21.1733,nan,nan
1980-11-30 05:47:38,-1,nan,nan,nan,nan,1,3,nan,nan,1701,0.32751626,-3.6951447,9.4563904,156.86263,nan,403.408,-22.5922,21.9754,nan,nan
1980-11-30 05:48:18,-1,nan,nan,nan,nan,1,3,nan,nan,1701,0.32751131,-3.6946716,9.45224,156.8663,nan,401.422,-21.7959,21.8307,nan,nan
1980-11-30 05:48:59,-1,nan,nan,nan,nan,1,3,nan,nan,1701,0.32751131,-3.6946716,9.4483337,156.8663,nan,404.07,-20.3465,23.6948,nan,nan
1980-11-30 05:49:39,-1,nan,nan,nan,nan,1,3,nan,nan,1701,0.32750636,-3.6941977,9.4442139,156.86998,nan,401.29,-20.5181,22.3086,nan,nan
1980-11-30 05:50:20,-1,nan,nan,nan,nan,1,3,nan,nan,1701,0.32750142,-3.6937246,9.4400635,156.87364,nan,404.969,-19.9067,24.0218,nan,nan
1980-11-30 05:50:40,-1,nan,nan,nan,nan,1,3,nan,nan,1701,0.32750142,-3.6937246,9.4400635,156.87364,nan,404.338,-21.1978,21.9457,nan,nan
1980-11-30 05:54:43,1,40.5493,-8.55915,0.887324,3.03605,1,1,241888.0,234835.0,1701,0.32748169,-3.6918316,9.4156799,156.88834,37.9282,403.746,-17.0119,21.7797,63.1925,62.2643
1980-11-30 05:56:04,1,40.0636,-8.97403,0.248052,2.97234,1,1,237882.0,246298.0,1701,0.32747179,-3.6908846,9.4113159,156.89569,38.8598,401.594,-17.5264,25.0558,62.667,63.7659
1980-11-30 05:57:25,1,40.1187,-9.38267,-0.933333,2.91883,1,1,251111.0,241469.0,1701,0.32746685,-3.6904116,9.4032593,156.89935,39.741,405.687,-18.7391,23.3748,64.3859,63.1376
1980-11-30 06:00:07,1,38.688,-11.1213,-2.556,4.17084,1,1,274556.0,243737.0,1701,0.32745206,-3.6889915,9.3908691,156.91039,39.2999,402.525,-20.0597,24.5237,67.3245,63.4335
1980-11-30 06:01:28,1,40.1464,-7.68261,1.98406,3.2423,1,1,231978.0,248096.0,1701,0.32744712,-3.6885157,9.3789063,156.91406,39.0813,397.891,-21.5692,23.3065,61.8844,63.9982
1980-11-30 06:02:49,1,36.9662,-15.6013,-1.28312,2.78155,1,1,295062.0,247076.0,1701,0.32744223,-3.6880398,9.3708801,156.91774,46.2623,387.557,-16.0565,21.1892,69.7934,63.8665
1980-11-30 06:04:10,1,36.6105,-16.2105,-0.335088,2.49757,1,1,330439.0,220510.0,1701,0.32743239,-3.687089,9.3665161,156.92509,44.6825,385.166,-19.3039,20.8095,73.8591,60.3353
1980-11-30 06:08:13,1,36.256,-14.568,0.498667,2.62698,1,1,268190.0,281984.0,1701,0.32741278,-3.6851864,9.3460693,156.93982,47.5957,377.878,-14.809,22.9009,66.5395,68.2291
1980-11-30 06:21:41,1,36.7821,-10.9149,0.786567,2.65567,1,1,324207.0,234860.0,1701,0.32734901,-3.6790047,9.2689514,156.98769,47.9865,377.58,-8.34953,25.6024,73.1592,62.2676
1980-11-30 06:23:03,1,37.1174,-9.71594,1.37826,2.57105,1,1,289827.0,236970.0,1701,0.32733923,-3.6780539,9.2645874,156.99504,48.0254,372.591,-5.0503,24.3811,69.1716,62.5467
1980-11-30 06:24:24,1,37.9696,-9.94348,2.03768,3.03472,1,1,434589.0,237595.0,1701,0.32733428,-3.677578,9.2565308,156.99872,48.9791,383.392,-9.39551,26.7067,84.7027,62.6292
1980-11-30 06:25:45,1,38.4522,-10.6448,3.91791,3.00291,1,1,351409.0,229358.0,1701,0.3273294,-3.6771021,9.2485046,157.00241,46.5088,384.245,-7.80504,23.241,76.1665,61.534
1980-11-30 06:27:06,1,37.162,-10.5437,7.70423,2.81918,1,1,365592.0,255194.0,1701,0.32731956,-3.6761513,9.2402344,157.00977,49.2848,382.839,-2.7849,27.6904,77.6884,64.9073
1980-11-30 06:28:27,1,36.7358,-9.97015,9.71791,2.68704,1,1,306756.0,254520.0,1701,0.32731467,-3.6756754,9.2322083,157.01344,49.8668,376.674,-4.33476,27.0008,71.1631,64.8215
1980-11-30 06:29:48,1,36.3812,-10.8841,6.92174,2.88659,1,1,373231.0,255213.0,1701,0.32730979,-3.6751995,9.2241516,157.01712,49.7411,378.39,-4.06577,28.8484,78.4958,64.9096
1980-11-30 06:31:09,1,37.1408,-9.86761,10.2958,2.99637,1,1,402677.0,232430.0,1701,0.32729995,-3.6742487,9.2198181,157.02449,49.575,383.931,-5.15674,29.375,81.5335,61.9447
1980-11-30 06:35:12,1,37.1558,-9.93377,9.59091,2.9029,1,1,356856.0,219677.0,1701,0.32728034,-3.6723471,9.1954651,157.03922,45.0054,393.288,-12.2557,25.0354,76.7546,60.2214
1980-11-30 06:37:54,1,35.407,-9.13803,5.57465,4.21351,1,1,338979.0,242725.0,1701,0.32727051,-3.6713953,9.1793823,157.04657,50.0108,377.906,-11.287,13.8752,74.8073,63.3016
1980-11-30 06:39:15,1,36.1113,-7.1507,4.29859,3.25433,1,1,320495.0,234255.0,1701,0.32726073,-3.6704445,9.1750488,157.05394,49.7033,376.692,-11.1491,11.2561,72.7391,62.1874
1980-11-30 06:40:36,1,37.0449,-5.7,-2.45072,3.09179,1,1,265746.0,250649.0,1701,0.32725585,-3.6699686,9.1669922,157.05762,49.696,370.592,-12.271,26.0092,66.2356,64.3267
1980-11-30 06:41:57,1,36.803,-5.9209,-2.98657,2.72037,1,1,268446.0,255237.0,1701,0.3272509,-3.6694927,9.1589661,157.06129,49.5488,370.357,-9.3222,25.4551,66.5712,64.9127
1980-11-30 06:44:39,1,35.9522,-0.683582,-4.56866,2.71855,1,1,240695.0,290900.0,1701,0.32723618,-3.668067,9.1426697,157.07234,51.0492,370.067,-17.5984,30.1502,63.0364,69.2995
1980-11-30 06:46:01,1,35.4806,-6.00139,-7.49028,6.47256,1,1,301635.0,276569.0,1701,0.3272264,-3.6671162,9.1383057,157.0797,53.9238,372.426,-14.9944,41.3088,70.5665,67.5709
1980-11-30 06:47:21,1,38.0775,-2.45493,-3.62113,3.6825,1,1,335055.0,243460.0,1701,0.32722145,-3.6666403,9.1302795,157.08339,48.2,381.188,-13.3241,30.815,74.3731,63.3975
1980-11-30 06:52:45,1,38.0259,-5.28704,-1.86852,2.94172,1,1,296228.0,239615.0,1701,0.32719696,-3.6642618,9.0979004,157.10179,44.279,381.122,-10.6871,31.0689,69.9312,62.8948
1980-11-30 06:56:48,1,37.262,-5.8,2.45352,2.92354,1,1,267317.0,248104.0,1701,0.32717735,-3.6623602,9.0774536,157.11652,49.9508,370.401,-10.0595,21.8751,66.4311,63.9993
1980-11-30 06:59:29,1,36.8233,-5.90698,6.9907,2.75724,1,1,236795.0,285191.0,1701,0.32716262,-3.6609335,9.0650635,157.12755,50.0105,371.298,-8.08917,13.0841,62.5236,68.6161
1980-11-30 07:06:15,1,38.437,-2.68767,10.0575,3.50203,1,1,343369.0,250526.0,1701,0.32712847,-3.6575918,9.0283813,157.15337,49.0525,375.868,-14.3033,13.8739,75.2902,64.3109
1980-11-30 07:11:39,1,40.4826,-1.46232,4.31449,3.74728,1,1,304289.0,224515.0,1701,0.32710415,-3.6552038,8.9960327,157.17181,45.8197,379.089,-10.8473,19.8027,70.8762,60.8808
1980-11-30 07:14:21,1,37.1241,-1.42778,1.85741,3.20364,1,1,255714.0,280863.0,1701,0.32708955,-3.6537704,8.9836731,157.18288,52.2781,367.887,-15.785,26.5583,64.9733,68.0934
1980-11-30 07:15:42,1,37.638,-1.75443,3.62405,2.99173,1,1,261746.0,273963.0,1701,0.32708466,-3.6532927,8.975647,157.18657,53.0717,370.222,-14.6771,20.0862,65.7352,67.2518
1980-11-30 07:17:03,1,37.1836,-4.6274,3.99178,4.13849,1,1,281002.0,252831.0,1701,0.32707494,-3.652338,8.971283,157.19394,50.6528,370.969,-14.0346,21.083,68.1103,64.606
1980-11-30 07:18:24,1,37.3754,-2.0971,3.53333,2.86043,1,1,278956.0,252989.0,1701,0.32707006,-3.6518602,8.9593506,157.19763,53.1097,370.86,-11.0081,17.1249,67.8619,64.6262
1980-11-30 07:22:27,1,39.5058,0.811594,-0.87971,3.46038,1,1,361980.0,231885.0,1701,0.32705057,-3.6499491,8.9389648,157.21239,51.0662,381.348,-15.3218,24.7195,77.3037,61.872
1980-11-30 07:38:11,-1,nan,nan,nan,nan,1,4,nan,nan,1701,0.32697266,-3.6423073,8.8534546,157.27141,nan,nan,nan,nan,nan,nan
1980-11-30 07:39:32,1,35.375,2.15,11.3,0.925675,1,1,469379.0,234339.0,1701,0.32696778,-3.6418295,8.8454285,157.2751,56.6025,381.47,-2.87217,-2.70092,88.0278,62.1986
1980-11-30 07:40:53,1,37.3,1.05,9.1,0.908295,1,1,854739.0,219654.0,1701,0.32696289,-3.6413507,8.8374023,157.27879,75.0322,356.084,-8.29683,-8.80416,118.789,60.2181
1980-11-30 07:41:22,1,36.9,-0.742857,9.35714,0.531075,1,1,491369.0,241521.0,1701,0.32695806,-3.6408739,8.8371582,157.28247,60.0819,375.16,-3.39678,3.74466,90.0662,63.1445
1980-11-30 07:42:43,1,37.875,-0.5,10.1625,0.896782,1,1,501608.0,236842.0,1701,0.32695317,-3.6403961,8.8252258,157.28616,61.6271,367.16,-4.36756,7.48763,90.9997,62.5298
1980-11-30 07:44:04,1,40.8125,2.3125,7.5625,1.75771,1,1,450497.0,233146.0,1701,0.32694346,-3.6394405,8.8208923,157.29355,58.5345,377.798,-4.54419,17.1916,86.239,62.04
1980-11-30 07:45:25,1,39.8857,3.5,4.98571,0.778014,1,1,525456.0,230992.0,1701,0.32693857,-3.6389627,8.8128662,157.29723,64.8721,367.622,-10.2652,19.8206,93.1378,61.7527
1980-11-30 07:46:46,1,36.3,1.35714,6.34286,0.936123,1,1,532338.0,243339.0,1701,0.32693368,-3.638485,8.8048401,157.30092,61.216,374.237,-4.71003,14.5164,93.7457,63.3817
1980-11-30 07:48:07,-1,nan,nan,nan,nan,1,4,nan,nan,1701,0.32692397,-3.6375303,8.8005066,157.3083,nan,nan,nan,nan,nan,nan
1980-11-30 07:50:49,1,38.225,3.9125,10.45,0.574864,1,1,725285.0,227181.0,1701,0.32691419,-3.6365747,8.7844238,157.31567,78.4118,360.331,-9.13323,6.2375,109.424,61.2412
1980-11-30 07:52:10,1,39.7286,2.88571,8.02857,0.694585,1,1,494867.0,239417.0,1701,0.32690448,-3.6356192,8.7761841,157.32306,64.1876,372.936,-4.527,18.0147,90.3862,62.8688
1980-11-30 07:53:31,-1,nan,nan,nan,nan,1,4,nan,nan,1701,0.32689959,-3.6351414,8.768158,157.32674,nan,nan,nan,nan,nan,nan
1980-11-30 07:54:52,1,38.7571,1.55714,10.3714,0.482341,1,1,439227.0,240136.0,1701,0.32689476,-3.6346636,8.7601318,157.33043,61.9653,378.562,-5.67502,11.1336,85.1534,62.9632
1980-11-30 07:56:13,-1,nan,nan,nan,nan,1,4,nan,nan,1701,0.32688498,-3.633709,8.7557983,157.33781,nan,nan,nan,nan,nan,nan
1980-11-30 07:58:55,-1,nan,nan,nan,nan,1,4,nan,nan,1701,0.32687527,-3.6327534,8.7397156,157.34518,nan,nan,nan,nan,nan,nan
1980-11-30 08:00:16,1,39.0111,0.577778,8.11111,0.426006,1,1,503662.0,226578.0,1701,0.32686555,-3.6317978,8.7314758,157.35257,65.7244,373.374,-4.68927,8.61599,91.1859,61.1598
1980-11-30 08:01:37,1,38.7111,0.433333,9.12222,0.400617,1,1,562151.0,226052.0,1701,0.32686067,-3.6313181,8.7234497,157.35626,63.1341,379.716,-5.93224,5.03548,96.3351,61.0888
1980-11-30 08:02:58,1,37.625,0.0125,8.45,1.03584,1,1,451004.0,221216.0,1701,0.32685584,-3.6308384,8.7154236,157.35995,60.3579,376.572,-4.69592,6.09506,86.2876,60.4319
1980-11-30 08:04:19,1,38.35,-1.025,7.85,0.290474,1,1,388819.0,237523.0,1701,0.32684618,-3.629879,8.7111206,157.36736,55.5774,382.359,-5.74388,6.40588,80.1183,62.6197
1980-11-30 08:05:40,1,41.1625,-0.0375,6.9125,0.946457,1,1,598528.0,213806.0,1701,0.32684135,-3.6293993,8.7030945,157.37105,72.8926,363.997,-3.35524,8.20796,99.4032,59.4111
1980-11-30 08:08:22,1,40.16,-4.88,7.36,0.417612,1,1,439558.0,237567.0,1701,0.32682687,-3.6279602,8.6868286,157.38214,64.3658,383.793,1.51914,8.98545,85.1856,62.6254
1980-11-30 08:09:43,1,42.3625,-5.8875,6.05,1.01781,1,1,333082.0,228881.0,1701,0.32682204,-3.6274805,8.6788025,157.38583,56.1343,390.224,-1.80967,10.5113,74.1538,61.47
1980-11-30 08:11:04,1,43.6,-5.44286,5.34286,0.552176,1,1,606609.0,215948.0,1701,0.32681233,-3.6265211,8.674469,157.39322,74.245,372.356,-2.31907,11.0957,100.072,59.708
1980-11-30 08:12:25,-1,nan,nan,nan,nan,1,4,nan,nan,1701,0.3268075,-3.6260414,8.6664734,157.39693,nan,nan,nan,nan,nan,nan
1980-11-30 08:13:46,1,44.6,-10.65,3.95,0.278388,1,1,614232.0,216856.0,1701,0.32680267,-3.6255608,8.6584473,157.40062,76.0249,373.386,4.46,7.04234,100.699,59.8335
1980-11-30 08:16:28,1,45.875,-9.2875,2.15,0.748645,1,1,602315.0,219279.0,1701,0.32678819,-3.6241217,8.6421814,157.41171,76.7418,373.888,4.73155,7.77811,99.7171,60.1667
1980-11-30 08:22:35,-1,nan,nan,nan,nan,1,3,nan,nan,1701,0.32777265,-3.5728061,7.5910034,156.41522,nan,398.601,-1.68743,7.97322,nan,nan
1980-11-30 08:25:17,-1,nan,nan,nan,nan,1,3,nan,nan,1701,0.32775941,-3.5715208,7.5773926,156.42505,nan,373.877,-0.74016,7.24972,nan,nan
1980-11-30 08:27:59,1,43.725,-6.35,2.0,0.323071,1,1,209706.0,202553.0,1701,0.32673502,-3.618844,8.5812988,157.45238,44.4959,400.997,-3.15298,7.39944,58.8388,57.8265
1980-11-30 08:28:38,1,43.5,-6.35,2.2,0.193649,1,1,584903.0,208811.0,1701,0.32673019,-3.6183643,8.577179,157.45607,75.2177,371.267,3.11686,10.376,98.2652,58.7131
1980-11-30 08:31:20,1,42.9,-7.05,2.2,0.193649,1,1,233223.0,191697.0,1701,0.32671565,-3.6169252,8.5648193,157.46716,47.4831,399.177,-0.988075,11.4474,62.0503,56.2556
1980-11-30 08:34:02,1,41.875,-7.4,2.1,0.178536,1,1,497203.0,191808.0,1701,0.32670116,-3.6154861,8.548584,157.47826,69.3853,375.646,4.38486,8.28334,90.5993,56.2718
1980-11-30 08:36:44,1,40.75,-9.625,3.2,0.423527,1,1,222110.0,193662.0,1701,0.32669151,-3.6145267,8.5325317,157.48564,47.0731,396.712,-2.53368,8.83204,60.5539,56.5432
1980-11-30 08:39:26,1,38.775,-11.425,3.1,0.467707,1,1,620031.0,193559.0,1701,0.32667702,-3.6130877,8.5201721,157.49673,71.8931,367.064,-3.14704,6.14589,101.173,56.5281
1980-11-30 08:42:08,-1,nan,nan,nan,nan,1,4,nan,nan,1701,0.32666248,-3.6116486,8.5039368,157.50783,nan,nan,nan,nan,nan,nan
1980-11-30 08:44:50,-1,nan,nan,nan,nan,1,4,nan,nan,1701,0.32665282,-3.6106882,8.4878845,157.51521,nan,nan,nan,nan,nan,nan
1980-11-30 08:47:32,-1,nan,nan,nan,nan,1,4,nan,nan,1701,0.32663834,-3.6092491,8.4755249,157.52631,nan,nan,nan,nan,nan,nan
1980-11-30 08:50:14,1,14.125,-20.325,11.875,2.9573,1,1,850336.0,251220.0,1701,0.32662386,-3.60781,8.4592896,157.5374,68.1004,365.008,-15.6129,26.4818,118.482,64.3999
1980-11-30 08:52:56,1,18.5,-25.175,2.925,1.53093,1,1,302144.0,202939.0,1701,0.32661414,-3.6068506,8.4432373,157.5448,39.7442,379.386,-49.7459,18.7682,70.626,57.8816
1980-11-30 08:55:38,1,24.6,-21.0,-3.3,1.95832,1,1,268100.0,267248.0,1701,0.32659966,-3.6054115,8.4308777,157.55588,57.4134,368.586,-0.867861,11.808,66.5283,66.4225
1980-11-30 08:58:20,-1,nan,nan,nan,nan,1,4,nan,nan,1701,0.32658517,-3.6039724,8.4185486,157.56697,nan,nan,nan,nan,nan,nan
1980-11-30 09:01:02,1,18.7,-21.1,-4.175,3.61689,1,1,625032.0,261818.0,1701,0.32657069,-3.6025305,8.4022827,157.57806,81.2506,345.131,-4.11508,10.3163,101.58,65.7443
1980-11-30 09:03:44,-1,nan,nan,nan,nan,1,4,nan,nan,1701,0.32656109,-3.6015663,8.386261,157.58548,nan,nan,nan,nan,nan,nan
1980-11-30 09:06:26,1,18.1333,-15.8,-6.93333,1.09443,1,1,569384.0,280152.0,1701,0.32654667,-3.6001215,8.3739319,157.59659,58.1678,377.892,-1.12944,-2.7306,96.9528,68.0072
1980-11-30 09:09:08,1,11.975,-16.125,-18.55,2.04848,1,1,627693.0,232326.0,1701,0.3265323,-3.5986757,8.3576965,157.6077,57.7329,370.527,-3.61886,-6.22087,101.796,61.9308
1980-11-30 09:11:50,1,23.875,-15.375,-9.05,2.93108,1,1,473475.0,216802.0,1701,0.32652271,-3.5977116,8.3416748,157.61511,58.4333,373.806,6.09116,-5.97892,88.411,59.826
1980-11-30 09:14:32,1,33.575,-1.825,-10.775,1.74517,1,1,582914.0,230258.0,1701,0.32650828,-3.5962658,8.3293457,157.62622,65.1377,380.445,5.08513,7.18376,98.098,61.6545
1980-11-30 09:17:14,1,28.4,-20.65,-13.075,2.56892,1,1,517427.0,218910.0,1701,0.32649392,-3.59482,8.3131409,157.63734,58.2065,375.261,3.22357,-0.819868,92.4235,60.1161
1980-11-30 09:19:56,-1,nan,nan,nan,nan,1,4,nan,nan,1701,0.32648432,-3.5938559,8.2970886,157.64474,nan,nan,nan,nan,nan,nan
1980-11-30 09:22:38,1,37.525,-2.275,-2.8,0.871063,1,1,480888.0,236020.0,1701,0.3264699,-3.592411,8.28479,157.65587,57.5283,382.561,0.936485,2.95422,89.1004,62.4213
1980-11-30 09:25:20,-1,nan,nan,nan,nan,1,4,nan,nan,1701,0.32645553,-3.5909653,8.2685547,157.66698,nan,nan,nan,nan,nan,nan
1980-11-30 09:28:02,1,33.9333,12.0333,1.23333,5.26308,1,1,258880.0,225666.0,1701,0.32644111,-3.5895195,8.2562256,157.67809,49.6715,385.5,-6.78524,3.96622,65.3743,61.0366
1980-11-30 09:30:44,1,42.6,4.24,-6.54,3.91571,1,1,276130.0,225020.0,1701,0.32643151,-3.5885553,8.2402039,157.6855,50.1357,406.184,-0.560861,5.6922,67.5172,60.9493
1980-11-30 09:33:26,1,38.9667,4.13333,-3.23333,2.22561,1,1,298204.0,281909.0,1701,0.32641709,-3.5871096,8.2239685,157.69661,50.5331,388.128,-5.48194,7.41884,70.164,68.2201
1980-11-30 09:36:08,1,41.875,4.15,-5.125,0.803897,1,1,281052.0,234502.0,1701,0.32640272,-3.5856647,8.2116394,157.70772,53.3133,390.778,-7.05101,12.5154,68.1163,62.2201
1980-11-30 09:38:50,1,46.2,3.9,-5.65,0.638357,1,1,169810.0,228345.0,1701,0.32639313,-3.5847006,8.1956177,157.71513,44.1613,406.827,-6.01724,8.75662,52.9467,61.3979
1980-11-30 09:41:32,1,43.4,2.8,-2.0,0.504975,1,1,268224.0,227574.0,1701,0.3263787,-3.5832548,8.1793823,157.72624,50.9779,398.115,1.67233,10.0868,66.5436,61.2941
1980-11-30 09:48:25,-1,nan,nan,nan,nan,1,4,nan,nan,1701,0.32634515,-3.5798817,8.1427917,157.75217,nan,nan,nan,nan,nan,nan
1980-11-30 09:49:35,1,47.1639,0.875,-6.82222,2.9785,1,1,146356.0,179255.0,1701,0.32634032,-3.5794001,8.1387024,157.75587,40.6402,400.876,-3.57606,16.8344,49.1544,54.3993
1980-11-30 09:52:18,1,46.4974,0.417949,-10.4,1.17852,1,1,166131.0,181918.0,1701,0.32632595,-3.5779543,8.122467,157.76698,44.2821,403.913,-0.634195,17.2272,52.3701,54.8019
1980-11-30 09:55:00,1,44.9108,3.87027,-9.83243,1.14153,1,1,165447.0,179474.0,1701,0.32631153,-3.5765085,8.1101379,157.77811,40.9851,403.578,-7.64631,17.3888,52.2622,54.4325
1980-11-30 09:57:41,1,44.58,7.02,-8.72667,0.97493,1,1,160433.0,174851.0,1701,0.32630193,-3.5755444,8.0941162,157.78551,42.5089,401.931,-20.0742,23.0258,51.4641,53.7269
1980-11-30 10:03:43,1,44.8,5.51739,-8.7,0.993742,1,1,158089.0,187503.0,1701,0.32627326,-3.5726471,8.0577698,157.80777,43.3809,401.201,-21.4376,21.6624,51.0867,55.6368
1980-11-30 10:13:53,1,39.6568,-11.5703,-3.33514,2.93226,1,1,243335.0,220038.0,1701,0.32622564,-3.5678062,8.0050354,157.84488,50.8183,402.219,9.57128,15.0708,63.3812,60.2707
1980-11-30 10:16:36,1,44.1641,-8.82564,-4.81538,1.72385,1,1,162924.0,209488.0,1701,0.32621133,-3.5663548,7.9888306,157.85602,43.7414,409.509,0.461295,17.4036,51.8622,58.8081
1980-11-30 10:19:18,1,39.6314,-11.72,-4.79429,2.35026,1,1,256764.0,208869.0,1701,0.32619703,-3.5649033,7.976532,157.86716,49.1832,402.554,1.66207,17.2842,65.1066,58.7211
1980-11-30 10:22:00,1,39.1053,-13.0211,-3.56053,1.69762,1,1,268578.0,225586.0,1701,0.32618272,-3.5634508,7.9642334,157.8783,52.8587,396.223,17.0435,15.4853,66.5876,61.0259
1980-11-30 10:24:42,1,40.35,-10.4,0.283333,1.88016,1,1,283506.0,226366.0,1701,0.32617325,-3.5624828,7.9443054,157.88571,56.1583,396.889,5.78525,11.4333,68.413,61.1312
1980-11-30 10:30:06,1,40.7857,-12.8429,0.165714,1.52884,1,1,233935.0,213393.0,1701,0.32614464,-3.5595789,7.9197083,157.90799,48.0275,398.896,11.2976,7.58423,62.1449,59.3538
1980-11-30 10:32:48,1,39.7917,-14.7833,-0.616667,2.42686,1,1,238063.0,218017.0,1701,0.3261351,-3.5586109,7.8998108,157.91542,49.9048,401.173,13.9346,13.5648,62.6908,59.9933
1980-11-30 10:35:30,1,39.2944,-15.9722,0.938889,1.59945,1,1,224980.0,219653.0,1701,0.32612079,-3.5571585,7.8875122,157.92656,48.9688,401.138,14.7529,13.7276,60.9438,60.218
1980-11-30 10:38:12,1,38.2657,-7.24857,10.8114,3.47506,1,1,235476.0,204952.0,1701,0.32610655,-3.555707,7.8751831,157.93768,48.2203,396.829,-2.89801,-6.3321,62.3493,58.168
1980-11-30 10:40:54,1,36.2343,-5.35143,16.2057,6.59269,1,1,199703.0,203778.0,1701,0.32609701,-3.554738,7.8552856,157.94511,47.0681,406.561,-5.18796,-21.1562,57.4183,58.0012
1980-11-30 10:43:36,1,36.9194,-14.1083,9.57222,2.30046,1,1,198861.0,206532.0,1701,0.32608271,-3.5532866,7.8429871,157.95625,46.4699,401.1,8.62555,-6.61421,57.2971,58.3918
1980-11-30 10:46:18,1,30.4541,-22.7973,9.6973,3.87442,1,1,266580.0,229595.0,1701,0.3260684,-3.5518351,7.8306885,157.96739,47.1739,407.82,22.916,-4.56599,66.3395,61.5657
1980-11-30 10:49:00,1,32.7686,-18.2629,8.22,2.01915,1,1,288454.0,246045.0,1701,0.32605416,-3.5503826,7.8183594,157.97852,48.8599,398.541,21.2933,3.53433,69.0075,63.7331
1980-11-30 10:51:42,1,37.5,-15.8757,2.6027,1.25265,1,1,229024.0,252982.0,1701,0.32604462,-3.5494146,7.7984619,157.98595,45.9904,409.088,13.3181,20.926,61.4891,64.6253
1980-11-30 10:54:24,1,34.8821,-16.5795,7.59487,1.98288,1,1,240928.0,262506.0,1701,0.32603031,-3.5479622,7.7861633,157.99709,46.6075,411.722,16.5043,-1.05958,63.0669,65.8305
1980-11-30 10:59:48,1,39.5282,-10.5795,-2.10513,1.75296,1,1,242387.0,301125.0,1701,0.32600647,-3.5455427,7.7539368,158.01564,49.4267,416.417,1.79629,21.6979,63.2576,70.5069
1980-11-30 11:02:30,1,40.1278,-11.5722,-4.68611,2.65637,1,1,224961.0,314725.0,1701,0.32599229,-3.5440865,7.7416382,158.02679,48.0679,420.136,-3.03148,31.8331,60.9413,72.0814
1980-11-30 11:05:12,1,40.8081,-12.2054,-5.95405,1.92381,1,1,191448.0,325399.0,1701,0.3259781,-3.5426283,7.7293701,158.03795,46.5067,420.489,-4.66974,32.9811,56.2191,73.2936
1980-11-30 11:07:54,1,41.4171,-10.66,-8.10857,2.53997,1,1,198210.0,323941.0,1701,0.32596862,-3.5416555,7.7094727,158.04539,45.3517,420.948,-10.0687,41.7131,57.2032,73.1293
1980-11-30 11:10:36,1,42.5194,-7.85556,-5.17778,1.37343,1,1,190087.0,320461.0,1701,0.32595444,-3.5401974,7.6971741,158.05655,45.7952,418.903,-7.46694,28.8909,56.0188,72.7354
1980-11-30 11:13:18,1,41.5543,-10.1686,-4.35429,4.10807,1,1,190402.0,309250.0,1701,0.32594025,-3.5387392,7.684906,158.06772,45.3116,419.26,-0.0062989,25.7615,56.0652,71.4517
1980-11-30 11:16:00,-1,nan,nan,nan,nan,1,3,nan,nan,1701,0.32592607,-3.537281,7.6687317,158.07887,nan,418.468,-2.66532,16.5666,nan,nan
1980-11-30 11:24:06,1,40.5543,-11.5629,-1.31714,1.43466,1,1,182615.0,307941.0,1701,0.32588828,-3.533392,7.6242676,158.10863,44.6615,418.664,-0.0965793,20.1549,54.9068,71.3003
1980-11-30 11:26:48,1,39.5892,-11.6378,0.413514,2.05693,1,1,185800.0,310890.0,1701,0.3258788,-3.5324192,7.6082764,158.11607,45.1106,414.73,-6.7931,21.2023,55.3835,71.6409
1980-11-30 11:29:30,1,40.9371,-8.00571,-0.254286,0.763964,1,1,176739.0,304805.0,1701,0.32586461,-3.530961,7.5959778,158.12723,45.182,413.87,-9.48165,17.5969,54.0161,70.9364
1980-11-30 11:32:12,1,41.0368,-8.11842,0.452632,1.61864,1,1,183889.0,298997.0,1701,0.32585043,-3.5295029,7.5798035,158.1384,44.2459,417.713,-7.14343,20.4962,55.098,70.2573
1980-11-30 11:37:36,1,41.4244,-5.9561,-2.2439,1.89632,1,1,177921.0,297888.0,1701,0.32582682,-3.527072,7.5515442,158.157,44.0025,413.527,-10.6125,27.7559,54.1965,70.1268
1980-11-30 11:40:18,1,41.0882,-7.29412,-1.53824,0.710725,1,1,183437.0,297897.0,1701,0.32581264,-3.5256138,7.5353394,158.16815,44.1297,414.263,-10.8194,27.9171,55.0303,70.1279
1980-11-30 11:43:00,1,40.88,-8.31429,-3.48857,2.79783,1,1,176311.0,294464.0,1701,0.32579845,-3.5241556,7.5230713,158.17931,42.597,412.983,-8.43527,28.0322,53.9508,69.7226
1980-11-30 11:45:42,1,41.6488,-5.93415,-2.78537,1.6831,1,1,175476.0,286890.0,1701,0.32578897,-3.5231829,7.5070801,158.18675,42.5742,412.465,-17.1093,27.3209,53.8228,68.8202
1980-11-30 11:48:24,1,41.6919,-7.65946,-0.959459,0.750602,1,1,142400.0,284674.0,1701,0.32577479,-3.5217247,7.4947815,158.19791,39.9206,410.134,-8.89766,19.9492,48.4856,68.5538
1980-11-30 11:51:06,1,41.6436,-7.22051,-0.761538,1.1661,1,1,167329.0,292834.0,1701,0.3257606,-3.5202665,7.4786072,158.20906,42.2594,411.34,-10.5079,19.9764,52.5585,69.5294
1980-11-30 11:53:48,1,41.239,-8.53171,-1.76341,0.535598,1,1,169538.0,275237.0,1701,0.32575119,-3.5192938,7.462616,158.21651,40.9987,409.615,-9.73235,22.342,52.9044,67.408
1980-11-30 11:56:30,1,40.6081,-8.23514,-1.47027,0.982677,1,1,167752.0,278815.0,1701,0.325737,-3.5178356,7.4503174,158.22766,42.1138,410.536,-15.1282,21.9916,52.625,67.8447
1980-11-30 11:59:12,1,39.6775,-10.5,-3.7675,1.91022,1,1,165741.0,281540.0,1701,0.32572281,-3.5163774,7.4341431,158.23883,43.6549,412.388,-10.2173,19.1207,52.3086,68.1755